Weather History for KRKR - November, 2011

Change the Weather History Date:

Friday, November 25, 2011

  Actual Average (KFSM) Record (KFSM)
Temperature  
Mean Temperature 50 °F 47 °F  
Max Temperature 62 °F 58 °F 81 °F (1965)
Min Temperature 37 °F 37 °F 17 °F (1950)
Degree Days  
Heating Degree Days 16 18  
Month to date heating degree days 318  
Since 1 July heating degree days 472  
Moisture  
Dew Point 46 °F    
Average Humidity 78    
Maximum Humidity 100    
Minimum Humidity 59    
Precipitation  
Precipitation 0.00 in 0.14 in 2.22 in (1952)
Month to date precipitation 3.73  
Year to date precipitation 41.46  
Sea Level Pressure  
Sea Level Pressure 30.06 in    
Wind  
Wind Speed 3 mph (South)    
Max Wind Speed 16 mph    
Max Gust Speed 26 mph    
Visibility 8 miles    
Events      
T = Trace of Precipitation, MM = Missing Value Source: NWS Daily Summary

Daily Weather History Graph

Daily Weather History Graph

Search for Another Location

Airport or City:

Trip Planner

Search our weather history database for the weather conditions in past years. The results will help you decide how hot, cold, wet, or windy it might be!

Date:

Astronomy

Nov. 25, 2011 Rise Set
Actual Time 7:02 AM CST 5:08 PM CST
Civil Twilight 6:34 AM CST 5:35 PM CST
Nautical Twilight 6:03 AM CST 6:06 PM CST
Astronomical Twilight 5:33 AM CST 6:37 PM CST
Moon 7:29 AM CST (11/25) 5:39 PM CST (11/25)
Length of Visible Light 11h 00m
Length of Day
10h 05m
New Moon, 0% of the Moon is Illuminated
Nov 25
New Moon
Dec 2
First Quarter
Dec 10
Full
Dec 17
Last Quarter
Dec 24
New

Hourly Weather History & Observations

Time (CST) Temp. Dew Point Humidity Pressure Visibility Wind Dir Wind Speed Gust Speed Precip Events Conditions
12:15 AM 42.8 °F 41.0 °F 93% 30.18 in 7.0 mi Calm Calm - N/A   Clear
1:15 AM 41.0 °F 39.2 °F 93% 30.17 in 5.0 mi Calm Calm - N/A   Clear
1:35 AM 39.2 °F 37.4 °F 93% 30.17 in 5.0 mi Calm Calm - N/A   Clear
2:15 AM 37.4 °F 35.6 °F 93% 30.15 in 2.5 mi Calm Calm - N/A   Clear
2:35 AM 37.4 °F 37.4 °F 100% 30.15 in 7.0 mi Calm Calm - N/A   Unknown
2:55 AM 39.2 °F 37.4 °F 93% 30.15 in 5.0 mi Calm Calm - N/A   Mist
3:15 AM 39.2 °F 37.4 °F 93% 30.16 in 7.0 mi Calm Calm - N/A   Unknown
3:35 AM 37.4 °F 37.4 °F 100% 30.16 in 4.0 mi Calm Calm - N/A   Mist
4:35 AM 37.4 °F 37.4 °F 100% 30.15 in 5.0 mi Calm Calm - N/A   Mist
4:55 AM 37.4 °F 37.4 °F 100% 30.15 in 5.0 mi Calm Calm - N/A   Mist
5:15 AM 39.2 °F 37.4 °F 93% 30.15 in 5.0 mi Calm Calm - N/A   Mist
5:35 AM 39.2 °F 37.4 °F 93% 30.14 in 7.0 mi Calm Calm - N/A   Unknown
6:15 AM 37.4 °F 35.6 °F 93% 30.14 in 3.0 mi Calm Calm - N/A   Mist
6:35 AM 37.4 °F 35.6 °F 93% 30.15 in 4.0 mi Calm Calm - N/A   Mist
6:55 AM 41.0 °F 39.2 °F 93% 30.14 in 5.0 mi Calm Calm - N/A   Mist
7:15 AM 39.2 °F 37.4 °F 93% 30.14 in 4.0 mi Calm Calm - N/A   Mist
7:55 AM 41.0 °F 41.0 °F 100% 30.14 in 2.5 mi Calm Calm - N/A   Clear
8:15 AM 42.8 °F 42.8 °F 100% 30.14 in 1.5 mi Calm Calm - N/A   Mist
8:35 AM 44.6 °F 42.8 °F 93% 30.14 in 2.5 mi Calm Calm - N/A   Mist
8:55 AM 50.0 °F 50.0 °F 100% 30.13 in 5.0 mi Calm Calm - N/A   Mist
9:15 AM 55.4 °F 51.8 °F 88% 30.13 in 10.0 mi South 9.2 mph 16.1 mph N/A   Unknown
9:35 AM 57.2 °F 50.0 °F 77% 30.13 in 10.0 mi SSW 13.8 mph 18.4 mph N/A   Clear
9:55 AM 57.2 °F 50.0 °F 77% 30.12 in 10.0 mi South 11.5 mph 21.9 mph N/A   Clear
10:15 AM 59.0 °F 48.2 °F 67% 30.11 in 10.0 mi South 16.1 mph 26.5 mph N/A   Clear
10:35 AM 60.8 °F 50.0 °F 68% 30.11 in 10.0 mi South 12.7 mph 23.0 mph N/A   Clear
10:55 AM 60.8 °F 48.2 °F 63% 30.10 in 10.0 mi SSW 16.1 mph 21.9 mph N/A   Clear
11:15 AM 60.8 °F 48.2 °F 63% 30.09 in 10.0 mi South 12.7 mph 18.4 mph N/A   Clear
11:35 AM 60.8 °F 48.2 °F 63% 30.08 in 10.0 mi South 13.8 mph 18.4 mph N/A   Clear
11:55 AM 60.8 °F 48.2 °F 63% 30.07 in 10.0 mi South 15.0 mph 20.7 mph N/A   Clear
12:15 PM 60.8 °F 48.2 °F 63% 30.05 in 10.0 mi SSW 12.7 mph 21.9 mph N/A   Clear
12:35 PM 60.8 °F 46.4 °F 59% 30.04 in 10.0 mi SSW 12.7 mph 20.7 mph N/A   Clear
12:55 PM 60.8 °F 46.4 °F 59% 30.03 in 10.0 mi South 13.8 mph 20.7 mph N/A   Clear
1:15 PM 60.8 °F 46.4 °F 59% 30.02 in 10.0 mi South 13.8 mph 19.6 mph N/A   Clear
1:35 PM 60.8 °F 48.2 °F 63% 30.01 in 10.0 mi SSE 10.4 mph 17.3 mph N/A   Clear
1:55 PM 62.6 °F 50.0 °F 63% 29.99 in 10.0 mi South 11.5 mph 18.4 mph N/A   Clear
2:15 PM 62.6 °F 50.0 °F 63% 29.98 in 10.0 mi South 11.5 mph - N/A   Clear
2:35 PM 62.6 °F 50.0 °F 63% 29.97 in 10.0 mi South 8.1 mph - N/A   Clear
2:55 PM 62.6 °F 50.0 °F 63% 29.96 in 10.0 mi South 4.6 mph - N/A   Clear
3:15 PM 62.6 °F 50.0 °F 63% 29.95 in 10.0 mi SSE 3.5 mph - N/A   Clear
3:35 PM 62.6 °F 50.0 °F 63% 29.95 in 10.0 mi SE 4.6 mph - N/A   Clear
3:55 PM 60.8 °F 50.0 °F 68% 29.95 in 10.0 mi East 3.5 mph - N/A   Unknown
4:15 PM 60.8 °F 50.0 °F 68% 29.94 in 10.0 mi Calm Calm - N/A   Unknown
4:35 PM 60.8 °F 50.0 °F 68% 29.95 in 10.0 mi Calm Calm - N/A   Unknown
4:55 PM 59.0 °F 50.0 °F 72% 29.95 in 10.0 mi Calm Calm - N/A   Unknown
5:15 PM 57.2 °F 50.0 °F 77% 29.94 in 10.0 mi Calm Calm - N/A   Unknown
5:35 PM 55.4 °F 50.0 °F 82% 29.95 in 10.0 mi Calm Calm - N/A   Clear
5:55 PM 55.4 °F 50.0 °F 82% 29.95 in 10.0 mi Calm Calm - N/A   Clear
6:15 PM 59.0 °F 50.0 °F 72% 29.95 in 10.0 mi SSE 3.5 mph - N/A   Clear
6:35 PM 59.0 °F 50.0 °F 72% 29.96 in 10.0 mi South 4.6 mph - N/A   Scattered Clouds
6:55 PM 60.8 °F 50.0 °F 68% 29.95 in 10.0 mi SSE 4.6 mph - N/A   Mostly Cloudy
7:35 PM 60.8 °F 50.0 °F 68% 29.96 in 10.0 mi Calm Calm - N/A   Overcast
7:55 PM 60.8 °F 50.0 °F 68% 29.96 in 10.0 mi Calm Calm - N/A   Unknown
8:15 PM 59.0 °F 50.0 °F 72% 29.95 in 10.0 mi Calm Calm - N/A   Unknown
8:35 PM 59.0 °F 51.8 °F 77% 29.95 in 10.0 mi Calm Calm - N/A   Unknown
8:55 PM 59.0 °F 51.8 °F 77% 29.95 in 10.0 mi Calm Calm - N/A   Unknown
9:15 PM 57.2 °F 51.8 °F 82% 29.95 in 10.0 mi Calm Calm - N/A   Unknown
9:35 PM 60.8 °F 51.8 °F 72% 29.93 in 10.0 mi SSE 6.9 mph - N/A   Unknown
9:55 PM 62.6 °F 53.6 °F 72% 29.93 in 10.0 mi South 10.4 mph - N/A   Mostly Cloudy
10:15 PM 62.6 °F 53.6 °F 72% 29.93 in 10.0 mi South 12.7 mph 18.4 mph N/A   Mostly Cloudy
10:35 PM 62.6 °F 53.6 °F 72% 29.91 in 10.0 mi SSE 15.0 mph 21.9 mph N/A   Scattered Clouds
10:55 PM 62.6 °F 53.6 °F 72% 29.90 in 10.0 mi South 16.1 mph 24.2 mph N/A   Clear
11:15 PM 62.6 °F 53.6 °F 72% 29.90 in 10.0 mi South 15.0 mph 26.5 mph N/A   Clear
11:35 PM 62.6 °F 53.6 °F 72% 29.90 in 10.0 mi South 17.3 mph 21.9 mph N/A   Scattered Clouds
11:55 PM 62.6 °F 53.6 °F 72% 29.89 in 10.0 mi South 15.0 mph 24.2 mph N/A   Scattered Clouds